<?xml version="1.0" encoding="UTF-8"?>
<gpx xmlns="http://www.topografix.com/GPX/1/1" xmlns:dkl="http://www.gpsware.de/DKL/1/1" xmlns:rtx="http://www.bike-gps.de/RTX/1/1" version="1.1" creator="KOMPASS Digital Map" xmlns:xsi="http://www.w3.org/2001/XMLSchema-instance" xsi:schemaLocation="http://www.topografix.com/GPX/1/1 http://www.topografix.com/GPX/1/1/gpx.xsd">
  <metadata>
    <name>KOMPASS Digital Map Track</name>
    <desc></desc>
    <time>2010-10-19T14:43:36Z</time>
    <bounds minlat="47.210195" minlon="11.523808" maxlat="47.260534" maxlon="11.552131"/>
  </metadata>
  <trk>
    <name>glungezer_sonnenspitze_tulfes</name>
    <extensions>
      <dkl:dkl>
        <dkl:format_version>1.1</dkl:format_version>
      </dkl:dkl>
    </extensions>
    <trkseg>
      <trkpt lat="47.256911" lon="11.536240">
        <ele>0.00</ele>
        <time>1970-01-01T00:00:00Z</time>
      </trkpt>
      <trkpt lat="47.257931" lon="11.537941">
        <ele>0.00</ele>
        <time>1970-01-01T00:00:00Z</time>
      </trkpt>
      <trkpt lat="47.258836" lon="11.540760">
        <ele>0.00</ele>
        <time>1970-01-01T00:00:00Z</time>
      </trkpt>
      <trkpt lat="47.260534" lon="11.544311">
        <ele>0.00</ele>
        <time>1970-01-01T00:00:00Z</time>
      </trkpt>
      <trkpt lat="47.260411" lon="11.545793">
        <ele>0.00</ele>
        <time>1970-01-01T00:00:00Z</time>
      </trkpt>
      <trkpt lat="47.259518" lon="11.547501">
        <ele>0.00</ele>
        <time>1970-01-01T00:00:00Z</time>
      </trkpt>
      <trkpt lat="47.258203" lon="11.548000">
        <ele>0.00</ele>
        <time>1970-01-01T00:00:00Z</time>
      </trkpt>
      <trkpt lat="47.256029" lon="11.549614">
        <ele>0.00</ele>
        <time>1970-01-01T00:00:00Z</time>
      </trkpt>
      <trkpt lat="47.253656" lon="11.552110">
        <ele>0.00</ele>
        <time>1970-01-01T00:00:00Z</time>
      </trkpt>
      <trkpt lat="47.252036" lon="11.552131">
        <ele>0.00</ele>
        <time>1970-01-01T00:00:00Z</time>
      </trkpt>
      <trkpt lat="47.249334" lon="11.549193">
        <ele>0.00</ele>
        <time>1970-01-01T00:00:00Z</time>
      </trkpt>
      <trkpt lat="47.247379" lon="11.547084">
        <ele>0.00</ele>
        <time>1970-01-01T00:00:00Z</time>
      </trkpt>
      <trkpt lat="47.243775" lon="11.544268">
        <ele>0.00</ele>
        <time>1970-01-01T00:00:00Z</time>
      </trkpt>
      <trkpt lat="47.241335" lon="11.543641">
        <ele>0.00</ele>
        <time>1970-01-01T00:00:00Z</time>
      </trkpt>
      <trkpt lat="47.240459" lon="11.542575">
        <ele>0.00</ele>
        <time>1970-01-01T00:00:00Z</time>
      </trkpt>
      <trkpt lat="47.238558" lon="11.540040">
        <ele>0.00</ele>
        <time>1970-01-01T00:00:00Z</time>
      </trkpt>
      <trkpt lat="47.236299" lon="11.539403">
        <ele>0.00</ele>
        <time>1970-01-01T00:00:00Z</time>
      </trkpt>
      <trkpt lat="47.235270" lon="11.538132">
        <ele>0.00</ele>
        <time>1970-01-01T00:00:00Z</time>
      </trkpt>
      <trkpt lat="47.234075" lon="11.537249">
        <ele>0.00</ele>
        <time>1970-01-01T00:00:00Z</time>
      </trkpt>
      <trkpt lat="47.233273" lon="11.535856">
        <ele>0.00</ele>
        <time>1970-01-01T00:00:00Z</time>
      </trkpt>
      <trkpt lat="47.230909" lon="11.533927">
        <ele>0.00</ele>
        <time>1970-01-01T00:00:00Z</time>
      </trkpt>
      <trkpt lat="47.225783" lon="11.529639">
        <ele>0.00</ele>
        <time>1970-01-01T00:00:00Z</time>
      </trkpt>
      <trkpt lat="47.225135" lon="11.529443">
        <ele>0.00</ele>
        <time>1970-01-01T00:00:00Z</time>
      </trkpt>
      <trkpt lat="47.223504" lon="11.529927">
        <ele>0.00</ele>
        <time>1970-01-01T00:00:00Z</time>
      </trkpt>
      <trkpt lat="47.220552" lon="11.533187">
        <ele>0.00</ele>
        <time>1970-01-01T00:00:00Z</time>
      </trkpt>
      <trkpt lat="47.220220" lon="11.532973">
        <ele>0.00</ele>
        <time>1970-01-01T00:00:00Z</time>
      </trkpt>
      <trkpt lat="47.218736" lon="11.532936">
        <ele>0.00</ele>
        <time>1970-01-01T00:00:00Z</time>
      </trkpt>
      <trkpt lat="47.218053" lon="11.533194">
        <ele>0.00</ele>
        <time>1970-01-01T00:00:00Z</time>
      </trkpt>
      <trkpt lat="47.217418" lon="11.532404">
        <ele>0.00</ele>
        <time>1970-01-01T00:00:00Z</time>
      </trkpt>
      <trkpt lat="47.217626" lon="11.532183">
        <ele>0.00</ele>
        <time>1970-01-01T00:00:00Z</time>
      </trkpt>
      <trkpt lat="47.216958" lon="11.531854">
        <ele>0.00</ele>
        <time>1970-01-01T00:00:00Z</time>
      </trkpt>
      <trkpt lat="47.216743" lon="11.531415">
        <ele>0.00</ele>
        <time>1970-01-01T00:00:00Z</time>
      </trkpt>
      <trkpt lat="47.216071" lon="11.531284">
        <ele>0.00</ele>
        <time>1970-01-01T00:00:00Z</time>
      </trkpt>
      <trkpt lat="47.215126" lon="11.529225">
        <ele>0.00</ele>
        <time>1970-01-01T00:00:00Z</time>
      </trkpt>
      <trkpt lat="47.214585" lon="11.528274">
        <ele>0.00</ele>
        <time>1970-01-01T00:00:00Z</time>
      </trkpt>
      <trkpt lat="47.214344" lon="11.527966">
        <ele>0.00</ele>
        <time>1970-01-01T00:00:00Z</time>
      </trkpt>
      <trkpt lat="47.212821" lon="11.528686">
        <ele>0.00</ele>
        <time>1970-01-01T00:00:00Z</time>
      </trkpt>
      <trkpt lat="47.212213" lon="11.527699">
        <ele>0.00</ele>
        <time>1970-01-01T00:00:00Z</time>
      </trkpt>
      <trkpt lat="47.211759" lon="11.526852">
        <ele>0.00</ele>
        <time>1970-01-01T00:00:00Z</time>
      </trkpt>
      <trkpt lat="47.211448" lon="11.526672">
        <ele>0.00</ele>
        <time>1970-01-01T00:00:00Z</time>
      </trkpt>
      <trkpt lat="47.211541" lon="11.525521">
        <ele>0.00</ele>
        <time>1970-01-01T00:00:00Z</time>
      </trkpt>
      <trkpt lat="47.210931" lon="11.525657">
        <ele>0.00</ele>
        <time>1970-01-01T00:00:00Z</time>
      </trkpt>
      <trkpt lat="47.210584" lon="11.525047">
        <ele>0.00</ele>
        <time>1970-01-01T00:00:00Z</time>
      </trkpt>
      <trkpt lat="47.210400" lon="11.525236">
        <ele>0.00</ele>
        <time>1970-01-01T00:00:00Z</time>
      </trkpt>
      <trkpt lat="47.210195" lon="11.524335">
        <ele>0.00</ele>
        <time>1970-01-01T00:00:00Z</time>
      </trkpt>
      <trkpt lat="47.210229" lon="11.523808">
        <ele>0.00</ele>
        <time>1970-01-01T00:00:00Z</time>
      </trkpt>
    </trkseg>
  </trk>
</gpx>
